[[{"header":{"parameterUnit":"m.s-1","parameterCategory":1,"la1":30.2991,"la2":30.254,"lo1":-89.0895,"lo2":-89.0444,"dx":0.0017,"dy":0.0017,"nx":28,"ny":28,"refTime":"2022-11-07T03:00:00:Z","depth":0,"parameterNumber":2,"parameterNumberName":"U-component_of_WINDS"},"data":[0,0,0,0,0,0,0,0,0,0,0,0,0,0,0,0,0,0,0,0,0,0,0,0,0,0,0,0,0,0,0,0,0,0,0,0,0,0,0,0,0,0,0,0,0,0,0,0,0,0,0,0,0,0,0,0,0,0,0.5703,0.5704,0,0.5809,0.581,0.5811,0.5896,0.5897,0.5898,0.5899,0.6001,0.6002,0.6004,0,0,0,0,0,0,0,0,0,0,0,0,0,0.5565,0.5567,0.5703,0.5704,0.5705,0.5809,0.581,0.5812,0.5896,0.5897,0.5898,0.5899,0.6,0.6002,0.6005,0,0,0,0,0,0,0,0,0,0,0,0,0,0.5643,0.5568,0.5702,0.576,0.5766,0.5809,0.581,0.5812,0.5896,0.5897,0.5898,0.5899,0.5999,0.6002,0.6005,0.5997,0,0,0.6014,0.6015,0,0,0,0,0,0,0,0,0.5639,0.5648,0.575,0.5756,0.5763,0.5841,0.5799,0.5874,0.5895,0.5846,0.5899,0.59,0.5946,0.5953,0.597,0.6001,0.6006,0.6014,0.6016,0.6017,0.6018,0,0,0,0,0,0,0,0.5633,0.5644,0.5745,0.5752,0.5759,0.5778,0.5791,0.5814,0.5887,0.5851,0.5857,0.5869,0.595,0.5967,0.5973,0.6007,0.6014,0.6016,0.6018,0.6019,0.6036,0.6034,0,0,0,0,0,0,0.562,0.5639,0.5741,0.5748,0.5703,0.5779,0.5794,0.5814,0.5887,0.59,0.5868,0.5872,0.5962,0.597,0.5977,0.5971,0.6017,0.602,0.6021,0.6037,0.6035,0.6034,0,0,0,0,0,0,0.5617,0.5628,0.5737,0.5695,0.5711,0.5781,0.5803,0.5816,0.5834,0.59,0.5913,0.5873,0.5963,0.5973,0.5991,0.5976,0.6021,0.6023,0.6038,0.6036,0.6035,0.596,0,0,0,0,0,0,0.5612,0.5627,0.5626,0.5695,0.5713,0.5751,0.5802,0.5817,0.5839,0.5846,0.5908,0.592,0.5965,0.5987,0.5994,0.5981,0.6026,0.604,0.6037,0.6035,0.5964,0.5956,0.5949,0,0,0,0,0,0.5607,0.56,0.5626,0.5637,0.5714,0.575,0.576,0.5814,0.5838,0.5836,0.5879,0.5918,0.5977,0.5988,0.5997,0.5984,0.6041,0.6038,0.6035,0.5968,0.5958,0.5949,0,0,0,0,0,0,0.5525,0.561,0.5639,0.5654,0.5695,0.5765,0.5765,0.5802,0.5835,0.584,0.5903,0.5917,0.5928,0.5958,0.5969,0.5979,0.6014,0.6013,0.5959,0.595,0.5943,0.5934,0.6028,0,0,0,0,0,0.5509,0.5534,0.5606,0.5612,0.5631,0.5694,0.5712,0.575,0.5794,0.5811,0.5855,0.5893,0.5921,0.5937,0.5966,0.5969,0.5983,0.5965,0.5957,0.5951,0.5948,0.5951,0.5943,0.6024,0.6024,0.6024,0,0,0.5475,0.5525,0.5537,0.5597,0.5633,0.5655,0.5708,0.5729,0.5746,0.5813,0.5834,0.5867,0.5914,0.5925,0.5931,0.595,0.5929,0.5947,0.5941,0.5943,0.5947,0.5939,0.5932,0.6022,0.6023,0.6023,0,0,0.5426,0.5466,0.5476,0.5511,0.5565,0.5607,0.5609,0.5673,0.5699,0.5721,0.5771,0.579,0.5837,0.5868,0.589,0.5851,0.5887,0.5858,0.5817,0.5819,0.5813,0.5807,0.5792,0.5786,0.5856,0.5856,0.5856,0,0.5376,0.5415,0.5475,0.5494,0.5518,0.5582,0.559,0.562,0.568,0.5694,0.5715,0.5774,0.581,0.5828,0.5818,0.5835,0.5837,0.5851,0.5809,0.5804,0.58,0.5786,0.578,0.5852,0.5852,0.5853,0.5853,0,0.5351,0.5376,0.5376,0.5435,0.5459,0.5472,0.5532,0.5548,0.5584,0.5623,0.5643,0.5689,0.5728,0.5735,0.577,0.5757,0.5767,0.5798,0.5833,0.5787,0.5775,0.5771,0.5846,0.5848,0.5849,0.585,0,0,0.5252,0.5344,0.5343,0.5369,0.5434,0.5453,0.5468,0.5508,0.552,0.5559,0.5571,0.5609,0.5637,0.5662,0.57,0.5702,0.5666,0.5732,0.5734,0.5717,0.5654,0.563,0.5623,0.5691,0.569,0.569,0.5649,0,0.5211,0.5245,0.5299,0.5313,0.5336,0.5397,0.541,0.5449,0.5485,0.5508,0.5548,0.5573,0.5609,0.5624,0.5629,0.567,0.5654,0.5673,0.5701,0.5701,0.5687,0.5617,0.5592,0.5551,0.5645,0.5644,0.5644,0,0.5169,0.5206,0.5223,0.5285,0.5296,0.5307,0.5347,0.5369,0.5414,0.544,0.5468,0.551,0.5527,0.556,0.5582,0.5594,0.5608,0.563,0.563,0.5633,0.5669,0.5617,0.554,0.5533,0.5637,0.5638,0.5638,0,0.5093,0.5147,0.5164,0.5185,0.5258,0.5264,0.5294,0.5341,0.5361,0.5395,0.5409,0.5444,0.5462,0.5487,0.5537,0.5557,0.5553,0.5591,0.5574,0.5572,0.5569,0.5568,0.5492,0.558,0.558,0.558,0.5581,0,0.5042,0.5049,0.5131,0.5142,0.5151,0.5212,0.5219,0.5255,0.5296,0.5312,0.5366,0.538,0.5445,0.5466,0.5505,0.5516,0.5525,0.5545,0.5555,0.5539,0.5536,0.5549,0.5552,0.5579,0.5579,0.558,0.558,0,0.4959,0.5014,0.5037,0.5104,0.5121,0.5125,0.5182,0.5192,0.5232,0.5252,0.526,0.5322,0.5349,0.5401,0.5442,0.5468,0.5471,0.5489,0.5456,0.5462,0.5441,0.5442,0.5369,0.5361,0.5455,0.5454,0.5453,0,0.4922,0.4929,0.4998,0.5014,0.5042,0.5067,0.5088,0.5148,0.5168,0.5219,0.5223,0.5255,0.5283,0.5323,0.537,0.5401,0.542,0.5392,0.5425,0.5409,0.5418,0.5416,0.5417,0.5384,0.5383,0.5382,0.5381,0,0.4849,0.4876,0.4906,0.4945,0.4969,0.5002,0.5038,0.5047,0.5115,0.5133,0.5163,0.5185,0.5228,0.5257,0.5296,0.5324,0.5363,0.5371,0.5368,0.5352,0.5332,0.5341,0.5435,0.5372,0.5373,0.5373,0.5374,0.5374,0.4787,0.4796,0.4846,0.4877,0.491,0.4942,0.4956,0.4998,0.5024,0.5065,0.5098,0.5124,0.5167,0.5223,0.5249,0.5269,0.5287,0.5284,0.5283,0.528,0.5273,0.533,0.5276,0.5276,0.5276,0.5277,0.5277,0,0.4717,0.4752,0.478,0.4829,0.4852,0.4889,0.493,0.4946,0.4969,0.5008,0.5035,0.5068,0.5097,0.5146,0.5179,0.5185,0.5203,0.5191,0.5191,0.5196,0.5256,0.5254,0.5176,0.5176,0.5176,0.5176,0.5176,0.5176,0.4683,0.47,0.4732,0.4765,0.48,0.4828,0.4847,0.4876,0.4907,0.4942,0.4967,0.5,0.5042,0.5078,0.5106,0.5119,0.5128,0.511,0.5129,0.5183,0.5192,0.5201,0.52,0.5112,0.5112,0.5068,0.5067,0.5067]},{"header":{"parameterUnit":"m.s-1","parameterCategory":1,"la1":30.2991,"la2":30.254,"lo1":-89.0895,"lo2":-89.0444,"dx":0.0017,"dy":0.0017,"nx":28,"ny":28,"refTime":"2022-11-07T03:00:00:Z","depth":0,"parameterNumber":3,"parameterNumberName":"V-component_of_WINDS"},"data":[0,0,0,0,0,0,0,0,0,0,0,0,0,0,0,0,0,0,0,0,0,0,0,0,0,0,0,0,0,0,0,0,0,0,0,0,0,0,0,0,0,0,0,0,0,0,0,0,0,0,0,0,0,0,0,0,0,0,-0.7172,-0.7172,0,-0.7187,-0.7187,-0.7187,-0.7185,-0.7185,-0.7185,-0.7185,-0.7201,-0.7202,-0.7202,0,0,0,0,0,0,0,0,0,0,0,0,0,-0.7144,-0.7144,-0.7172,-0.7172,-0.7172,-0.7187,-0.7187,-0.7187,-0.7185,-0.7185,-0.7185,-0.7185,-0.7201,-0.7202,-0.7202,0,0,0,0,0,0,0,0,0,0,0,0,0,-0.7157,-0.7144,-0.7172,-0.7173,-0.7173,-0.7187,-0.7187,-0.7187,-0.7185,-0.7185,-0.7185,-0.7184,-0.72,-0.7201,-0.7202,-0.7215,0,0,-0.7205,-0.7206,0,0,0,0,0,0,0,0,-0.7156,-0.7158,-0.7173,-0.7173,-0.7173,-0.7184,-0.7183,-0.7197,-0.7186,-0.7181,-0.7185,-0.7184,-0.7196,-0.7197,-0.7201,-0.7216,-0.7217,-0.7205,-0.7206,-0.7206,-0.7207,0,0,0,0,0,0,0,-0.7155,-0.7157,-0.7178,-0.7173,-0.7173,-0.7173,-0.7175,-0.7185,-0.719,-0.7181,-0.7181,-0.7183,-0.7196,-0.72,-0.7201,-0.7217,-0.7205,-0.7206,-0.7207,-0.7207,-0.7245,-0.7245,0,0,0,0,0,0,-0.7154,-0.7157,-0.7177,-0.7178,-0.7164,-0.7174,-0.7176,-0.7181,-0.719,-0.7191,-0.7183,-0.7183,-0.7198,-0.72,-0.7201,-0.7217,-0.7206,-0.7207,-0.7208,-0.7244,-0.7245,-0.7245,0,0,0,0,0,0,-0.7153,-0.7156,-0.7177,-0.7167,-0.717,-0.7175,-0.7181,-0.7181,-0.7185,-0.7191,-0.7192,-0.7186,-0.7198,-0.72,-0.7212,-0.7218,-0.7208,-0.7209,-0.7244,-0.7245,-0.7245,-0.7249,0,0,0,0,0,0,-0.7152,-0.7156,-0.716,-0.7167,-0.7171,-0.7186,-0.7181,-0.7182,-0.7187,-0.7186,-0.7194,-0.7195,-0.7198,-0.7211,-0.7213,-0.7219,-0.7209,-0.7243,-0.7244,-0.7245,-0.7248,-0.725,-0.7251,0,0,0,0,0,-0.7151,-0.7161,-0.716,-0.7163,-0.7176,-0.7187,-0.7188,-0.7191,-0.7187,-0.7192,-0.7196,-0.7195,-0.7217,-0.7212,-0.7215,-0.7221,-0.7243,-0.7244,-0.7245,-0.7248,-0.7249,-0.7251,0,0,0,0,0,0,-0.7154,-0.7162,-0.7161,-0.7173,-0.7179,-0.7186,-0.7192,-0.7192,-0.72,-0.7199,-0.7202,-0.7204,-0.7216,-0.722,-0.7214,-0.7234,-0.723,-0.7231,-0.7231,-0.7233,-0.7234,-0.7232,-0.721,0,0,0,0,0,-0.7156,-0.7164,-0.717,-0.718,-0.7183,-0.7187,-0.7192,-0.7193,-0.72,-0.7202,-0.7207,-0.7214,-0.7223,-0.7228,-0.7236,-0.7249,-0.7251,-0.7255,-0.7257,-0.7257,-0.7258,-0.7266,-0.7268,-0.7248,-0.7248,-0.7248,0,0,-0.716,-0.7165,-0.717,-0.7181,-0.7185,-0.7193,-0.7189,-0.7198,-0.7204,-0.7204,-0.7215,-0.7219,-0.7227,-0.724,-0.7246,-0.7243,-0.7265,-0.7259,-0.7259,-0.726,-0.7267,-0.7269,-0.7271,-0.7249,-0.7249,-0.7249,0,0,-0.7172,-0.7176,-0.7185,-0.719,-0.7197,-0.72,-0.7203,-0.721,-0.7212,-0.7224,-0.7224,-0.7232,-0.7246,-0.7251,-0.7256,-0.7271,-0.727,-0.7273,-0.7279,-0.7287,-0.7288,-0.729,-0.7295,-0.7296,-0.7275,-0.7275,-0.7275,0,-0.7176,-0.7187,-0.719,-0.7198,-0.7203,-0.7203,-0.7212,-0.7217,-0.7227,-0.7231,-0.7228,-0.7246,-0.7252,-0.7266,-0.7269,-0.7273,-0.7276,-0.7272,-0.7288,-0.7289,-0.7291,-0.7295,-0.7297,-0.7275,-0.7275,-0.7275,-0.7275,0,-0.7192,-0.72,-0.7207,-0.7215,-0.7221,-0.723,-0.7234,-0.724,-0.7241,-0.7244,-0.7256,-0.7263,-0.7272,-0.7276,-0.7277,-0.729,-0.7289,-0.7287,-0.7282,-0.7293,-0.7297,-0.7299,-0.7275,-0.7275,-0.7275,-0.7275,0,0,-0.7205,-0.7215,-0.7217,-0.7222,-0.723,-0.7237,-0.7246,-0.7255,-0.726,-0.7267,-0.7275,-0.7287,-0.7286,-0.7291,-0.7293,-0.73,-0.7311,-0.7298,-0.7298,-0.7299,-0.7326,-0.7327,-0.7329,-0.7311,-0.7311,-0.7312,-0.7325,0,-0.7216,-0.7232,-0.7234,-0.7248,-0.7256,-0.7257,-0.7265,-0.7271,-0.7275,-0.7283,-0.7287,-0.7296,-0.7293,-0.7297,-0.7303,-0.7308,-0.7316,-0.7307,-0.7319,-0.7319,-0.7316,-0.7331,-0.7332,-0.7344,-0.7327,-0.7327,-0.7328,0,-0.7232,-0.7239,-0.7253,-0.7261,-0.7264,-0.7271,-0.728,-0.7287,-0.7295,-0.7297,-0.7304,-0.7305,-0.7316,-0.7311,-0.7325,-0.7319,-0.7324,-0.7328,-0.7328,-0.7329,-0.7323,-0.7332,-0.7348,-0.735,-0.7331,-0.733,-0.733,0,-0.7239,-0.7252,-0.7263,-0.7266,-0.7276,-0.7281,-0.7285,-0.7292,-0.7298,-0.7306,-0.7309,-0.7319,-0.7324,-0.7331,-0.7335,-0.7332,-0.7349,-0.7345,-0.7352,-0.7352,-0.7355,-0.7354,-0.7372,-0.7359,-0.7359,-0.7359,-0.7359,0,-0.7251,-0.726,-0.7266,-0.7272,-0.7282,-0.7286,-0.7296,-0.73,-0.7307,-0.7314,-0.7316,-0.7323,-0.7329,-0.7337,-0.7341,-0.7352,-0.7355,-0.7357,-0.7358,-0.7356,-0.7356,-0.7359,-0.7358,-0.736,-0.7359,-0.7359,-0.7359,0,-0.726,-0.7265,-0.7276,-0.7284,-0.7286,-0.7293,-0.7301,-0.7307,-0.7311,-0.7321,-0.7323,-0.733,-0.734,-0.7345,-0.7358,-0.736,-0.7373,-0.7374,-0.737,-0.737,-0.7376,-0.7375,-0.7396,-0.7399,-0.7385,-0.7385,-0.7385,0,-0.7267,-0.7274,-0.7283,-0.7288,-0.7292,-0.73,-0.7306,-0.731,-0.7316,-0.7326,-0.7331,-0.7341,-0.7349,-0.7365,-0.7371,-0.7381,-0.7382,-0.7388,-0.7383,-0.7382,-0.7381,-0.738,-0.7381,-0.7389,-0.7389,-0.7389,-0.7389,0,-0.728,-0.7282,-0.7289,-0.7297,-0.7304,-0.7311,-0.7318,-0.7322,-0.7328,-0.7334,-0.7344,-0.735,-0.7363,-0.7373,-0.7384,-0.7389,-0.739,-0.7391,-0.7393,-0.7391,-0.7388,-0.739,-0.7372,-0.739,-0.739,-0.739,-0.739,-0.739,-0.7288,-0.7294,-0.7301,-0.7309,-0.7315,-0.7322,-0.7328,-0.7333,-0.7341,-0.7352,-0.7354,-0.7365,-0.7373,-0.7387,-0.7393,-0.7401,-0.74,-0.7403,-0.7404,-0.7404,-0.7404,-0.7388,-0.7403,-0.7403,-0.7403,-0.7403,-0.7403,0,-0.7299,-0.7304,-0.7312,-0.7322,-0.7329,-0.7329,-0.7337,-0.7343,-0.7352,-0.7359,-0.7367,-0.7379,-0.7389,-0.7396,-0.7407,-0.7412,-0.7413,-0.7415,-0.7414,-0.7416,-0.7405,-0.7402,-0.7414,-0.7414,-0.7414,-0.7414,-0.7414,-0.7414,-0.7306,-0.7316,-0.7319,-0.7333,-0.7338,-0.7348,-0.7352,-0.7359,-0.7365,-0.7377,-0.7385,-0.739,-0.7398,-0.7409,-0.7418,-0.742,-0.7424,-0.7426,-0.7428,-0.7417,-0.7416,-0.7415,-0.7412,-0.7426,-0.7426,-0.7437,-0.7438,-0.7438]}]]